This is the latest recevied weather packets stored in our database for station/object OE-11343. If no packets are shown the sender has not sent any weather packets the latest 10 day(s).
| Time | Temp. | Humidity | Pressure | Rain* | Wind** | Luminosity | Snow |
|---|---|---|---|---|---|---|---|
| 1787778698 | 6.11° C | 100% | 717.4 hPa | - | - | 0 W/m² | - |
| 1787778332 | 6.11° C | 100% | 717.5 hPa | - | - | 0 W/m² | - |
| 1787777725 | 6.11° C | 100% | 717.4 hPa | - | - | 0 W/m² | - |
| 1787776898 | 6.11° C | 100% | 717.1 hPa | - | - | 0 W/m² | - |
| 1787776525 | 6.11° C | 100% | 717.4 hPa | - | - | 0 W/m² | - |
| 1787775925 | 6.11° C | 100% | 717.5 hPa | - | - | 0 W/m² | - |
| 1787775099 | 6.11° C | 100% | 717.6 hPa | - | - | 0 W/m² | - |
| 1787774725 | 6.11° C | 100% | 717.5 hPa | - | - | 0 W/m² | - |
| 1787774125 | 6.11° C | 99% | 717.5 hPa | - | - | 0 W/m² | - |
| 1787773298 | 6.11° C | 97% | 717.5 hPa | - | - | 0 W/m² | - |
| 1787772925 | 6.11° C | 99% | 717.5 hPa | - | - | 0 W/m² | - |
| 1787772325 | 6.11° C | 95% | 717.6 hPa | - | - | 0 W/m² | - |
| 1787771498 | 6.11° C | 97% | 717.5 hPa | - | - | 0 W/m² | - |
| 1787771124 | 6.11° C | 98% | 717.5 hPa | - | - | 0 W/m² | - |
| 1787770525 | 6.11° C | 97% | 717.4 hPa | - | - | 0 W/m² | - |
| 1787769698 | 6.11° C | 99% | 717.4 hPa | - | - | 0 W/m² | - |
| 1787769325 | 6.67° C | 100% | 717.2 hPa | - | - | 0 W/m² | - |
| 1787768725 | 6.67° C | 100% | 717.4 hPa | - | - | 0 W/m² | - |
| 1787767899 | 6.67° C | 100% | 717.4 hPa | - | - | 0 W/m² | - |
| 1787767525 | 6.67° C | 100% | 717.4 hPa | - | - | 10 W/m² | - |
| 1787766925 | 6.67° C | 98% | 717.4 hPa | - | - | 10 W/m² | - |
| 1787766098 | 6.67° C | 99% | 717.2 hPa | - | - | 20 W/m² | - |
| 1787765725 | 6.67° C | 98% | 717.2 hPa | - | - | 30 W/m² | - |
| 1787765124 | 6.67° C | 98% | 717.4 hPa | - | - | 40 W/m² | - |
| 1787764298 | 7.22° C | 98% | 717.4 hPa | - | - | 40 W/m² | - |
* Rain since midnight (hover to see other rain measurements)
** Current wind speed in m/s (hover to see current wind gust speed)